World > North America > United States > Michigan   City of Flint, MI

Hourly Flint, MI Regional Weather

Feedback E-mail the Weather

Latest News

Flint, MI Weather Maps

°F °C°F °C
Flint Weather Map
UTC Time: 5/25/2022, 22:47
Your Time:

Flint, MI Regional Weather

Expires:202205252300;;578032
ASUS43 KDTX 252210
RWRMI 
MICHIGAN HOURLY REGIONAL WEATHER ROUNDUP
NATIONAL WEATHER SERVICE DETROIT/PONTIAC MI
600 PM EDT WED MAY 25 2022

NOTE: "FAIR" INDICATES FEW OR NO CLOUDS BELOW 12,000 FEET WITH NO
SIGNIFICANT WEATHER AND/OR OBSTRUCTION TO VISIBILITY.


MIZ047>049-052>055-059>063-066>070-074>076-081>083-252300-
SOUTHEAST LOWER MICHIGAN
  
CITY           SKY/WX    TMP DP  RH WIND       PRES   REMARKS
ADRIAN         MOSUNNY   74  64  71 SE15G21   29.97F                  
ALMA           CLOUDY    65  61  87 E10       29.97F                  
ANN ARBOR      MOSUNNY   69  61  75 SE10      30.00F                  
BAD AXE        CLOUDY    64  56  76 SE9G23    30.04F                  
CARO           CLOUDY    64  59  83 SE13G25   30.01F                  
DETROIT CITY   PTSUNNY   68  60  75 E10G20    30.03F                  
DETROIT        PTSUNNY   70  60  70 E13G21    30.01F                  
FLINT          PTSUNNY   66  60  81 SE15G24   30.00F                  
GROSSE ILE     PTSUNNY   70  64  80 E6        30.00F                  
HILLSDALE      PTSUNNY   72  66  83 E13       29.96F                  
HOWELL         PTSUNNY   70  62  77 SE15      29.99F                  

CITY           SKY/WX    TMP DP  RH WIND       PRES   REMARKS
JACKSON        PTSUNNY   70  62  76 E14G21    29.96F                  
LAMBERTVILLE   MOSUNNY   69  62  79 E6        29.98F HAZE             
LANSING        CLOUDY    70  62  76 SE13G23   29.97F                  
LAPEER         CLOUDY    64  62  94 SE10G18   30.02F                  
MASON          PTSUNNY   69  63  82 SE14G21   29.97F                  
MONROE         CLOUDY    66  59  78 E9G22     30.00F                  
MT. CLEMENS    CLOUDY    63  63 100 E7        30.03F                  
PONTIAC        CLOUDY    65  59  81 SE15G23   30.02F                  
PORT HOPE        N/A     57  31  37 SE18      30.03F                  
PORT HURON     CLOUDY    64  59  82 SE12G18   30.06F                  
TRI CITIES     CLOUDY    64  60  87 SE9       30.01F                  
MIDLAND        CLOUDY    64  61  90 E6        30.00F FOG              
TROY           PTSUNNY   66  57  71 E9        30.05F                  
SAGINAW HB     CLOUDY    65  59  82 SE13      30.00F                  
$$

SKY/WX - Weather  TMP - Temperature  DP - Dew Point  RH - Humidity
WIND - Wind Direction/Speed PRES - Barometric Pressure VSB - Visibility
WCI - Wind Chill Index E13G22 Wind - East Wind 13 mph/Gusts of 22 mph

Trending Headlines

Flint Radar Loop



Flint Quick Facts


National Two Day Weather Forecast


E-mail the Flint Weather Forecast

Voice your opinion or tell us about page issues...